Choptank River Felton DE USA current weather conditions

sailwx.info

Wind from 172 at 2 knots gusting 5

Air temperature 0.3° C
Dewpoint -4.8° C

Last reported at 2020-Jan-18 19:05 UTC.
Time now 2020-Jan-18 19:39 UTC

Location: N 39°02' W 075°44'.
View on Google Maps.

See reports from other nearby stations

  
Tides and Currents Weather Stations Pressure Air Temp Water Temp Dewpoint Dewpoint Depression Visibility Wind Speed Wind Dir Waves Ship Positions
date/time (UTC)wind fromknots sea level pressurealtimeterstation pressurevisibilityair tempwater tempwave heightnotes
2020-Jan-18 19:05 172 2 gusting 5 0.3
2020-Jan-18 18:55 153 1 gusting 4 0.4
2020-Jan-18 18:50 159 3 gusting 5 0.5
2020-Jan-18 18:45 168 2 gusting 4 0.6
2020-Jan-18 18:35 159 4 gusting 8 0.6
2020-Jan-18 18:25 189 2 gusting 5 0.6
2020-Jan-18 18:20 183 3 gusting 6 0.5
2020-Jan-18 18:15 179 2 gusting 4 0.5
2020-Jan-18 18:10 193 2 gusting 6 0.4
2020-Jan-18 18:05 211 3 gusting 9 0.4
2020-Jan-18 17:55 194 3 gusting 7 0.3
2020-Jan-18 17:45 198 3 gusting 5 0.3
2020-Jan-18 17:40 203 3 gusting 5 0.3
2020-Jan-18 17:35 229 4 gusting 7 0.3
2020-Jan-18 17:25 212 2 gusting 5 0.1
2020-Jan-18 17:20 184 2 gusting 5 0.0
2020-Jan-18 17:15 187 3 gusting 6 0.1
2020-Jan-18 17:05 178 3 gusting 5 -0.0
2020-Jan-18 16:55 199 2 gusting 7 -0.3
2020-Jan-18 16:50 185 4 gusting 7 -0.3
2020-Jan-18 16:45 217 4 gusting 7 -0.3
2020-Jan-18 16:40 231 5 gusting 9 -0.2
2020-Jan-18 16:35 219 4 gusting 8 -0.1
2020-Jan-18 16:25 193 3 gusting 8 -0.3
2020-Jan-18 16:15 207 4 gusting 9 -0.7
2020-Jan-18 16:05 214 3 gusting 8 -1.0
2020-Jan-18 15:55 224 4 gusting 8 -1.1
2020-Jan-18 15:50 217 4 gusting 7 -1.1
2020-Jan-18 15:45 192 3 gusting 6 -1.2
2020-Jan-18 15:40 171 1 gusting 6 -1.3
2020-Jan-18 15:35 138 2 gusting 3 -1.5
2020-Jan-18 15:25 220 2 gusting 6 -1.7
2020-Jan-18 15:15 197 2 gusting 6 -1.9
2020-Jan-18 15:10 200 2 gusting 5 -1.9
2020-Jan-18 15:05 198 2 gusting 5 -1.9
2020-Jan-18 14:55 142 0 gusting 3 -2.1
2020-Jan-18 14:50 143 2 gusting 5 -2.3
2020-Jan-18 14:45 175 2 gusting 5 -2.2
2020-Jan-18 14:35 172 1 gusting 4 -2.5
2020-Jan-18 14:25 147 1 gusting 3 -2.7
2020-Jan-18 14:20 144 1 gusting 6 -2.7
2020-Jan-18 14:15 210 1 gusting 3 -2.7
2020-Jan-18 14:10 213 2 gusting 3 -2.8
2020-Jan-18 14:05 211 3 gusting 5 -2.9
2020-Jan-18 13:55 208 1 gusting 3 -2.9
2020-Jan-18 13:45 197 1 gusting 3 -3.0
2020-Jan-18 13:35 225 2 gusting 5 -3.1
2020-Jan-18 13:25 235 2 gusting 4 -3.3
2020-Jan-18 13:20 208 1 gusting 3 -3.4
2020-Jan-18 13:15 210 1 gusting 2 -3.5
2020-Jan-18 13:10 194 1 gusting 3 -3.5
2020-Jan-18 13:05 174 1 gusting 2 -3.6
2020-Jan-18 12:55 183 1 gusting 1 -3.7
2020-Jan-18 12:50 133 0 gusting 2 -3.7
2020-Jan-18 12:45 054 0 gusting 1 -3.8
2020-Jan-18 12:40 064 -3.8
2020-Jan-18 12:35 163 -3.9
2020-Jan-18 12:25 047 1 gusting 3 -3.9
2020-Jan-18 12:20 091 1 gusting 2 -4.0
2020-Jan-18 12:10 067 2 gusting 2 -4.0
2020-Jan-18 11:55 097 0 gusting 1 -4.0
2020-Jan-18 11:50 092 0 gusting 1 -4.0
2020-Jan-18 11:45 064 1 gusting 2 -4.0
2020-Jan-18 11:40 105 -4.1
2020-Jan-18 11:35 105 -4.1
2020-Jan-18 11:25 034 -4.1
2020-Jan-18 11:20 035 -4.1
2020-Jan-18 11:10 323 -4.1
2020-Jan-18 11:05 100 0 gusting 0 -4.1
2020-Jan-18 10:55 255 0 gusting 1 -4.1
2020-Jan-18 10:50 007 -4.1
2020-Jan-18 10:45 268 0 gusting 0 -4.1
2020-Jan-18 10:40 056 2 gusting 3 -4.1
2020-Jan-18 10:25 065 3 gusting 4 -4.1
2020-Jan-18 10:20 059 2 gusting 3 -4.1
2020-Jan-18 10:15 061 2 gusting 3 -4.2
2020-Jan-18 10:10 049 2 gusting 2 -4.4
2020-Jan-18 10:05 078 0 gusting 1 -4.6
2020-Jan-18 09:55 010 0 gusting 1 -4.7
2020-Jan-18 09:50 017 0 gusting 1 -4.8
2020-Jan-18 09:40 005 -4.8
2020-Jan-18 09:25 267 0 gusting 1 -4.9
2020-Jan-18 09:20 299 -5.0
2020-Jan-18 09:15 260 -5.1
2020-Jan-18 09:10 260 -5.1
2020-Jan-18 09:05 260 -5.2
2020-Jan-18 08:55 075 -5.2
2020-Jan-18 08:50 001 -5.3
2020-Jan-18 08:40 326 -5.4
2020-Jan-18 08:35 319 -5.5
2020-Jan-18 08:25 319 -5.7
2020-Jan-18 08:20 318 -5.8
2020-Jan-18 08:15 318 -5.8
2020-Jan-18 08:10 319 -5.8
2020-Jan-18 07:55 266 0 gusting 0 -5.9
2020-Jan-18 07:50 250 1 gusting 1 -5.8
2020-Jan-18 07:45 168 0 gusting 1 -5.9
2020-Jan-18 07:40 107 -5.9
2020-Jan-18 07:35 107 -5.9
2020-Jan-18 07:25 173 -6.2
2020-Jan-18 07:20 176 -6.2
2020-Jan-18 07:10 199 0 gusting 0 -6.3
2020-Jan-18 06:55 231 0 gusting 0 -6.1
2020-Jan-18 06:50 234 0 gusting 2 -5.9
2020-Jan-18 06:45 159 0 gusting 2 -5.7
2020-Jan-18 06:40 258 0 gusting 1 -5.8
2020-Jan-18 06:35 341 -5.7
2020-Jan-18 06:25 254 -5.7
2020-Jan-18 06:20 226 -5.7
2020-Jan-18 06:10 267 0 gusting 1 -5.7
2020-Jan-18 06:05 329 0 gusting 0 -5.7
2020-Jan-18 05:55 074 1 gusting 2 -5.9
2020-Jan-18 05:50 164 -5.9
2020-Jan-18 05:45 164 -5.9
2020-Jan-18 05:40 085 0 gusting 1 -5.9
2020-Jan-18 05:35 195 0 gusting 1 -5.9
2020-Jan-18 05:25 173 0 gusting 1 -5.9
2020-Jan-18 05:20 122 -5.9
2020-Jan-18 05:10 096 0 gusting 1 -5.9
2020-Jan-18 05:05 192 0 gusting 0 -5.9
2020-Jan-18 04:55 291 0 gusting 1 -5.9
2020-Jan-18 04:50 127 0 gusting 0 -6.0
2020-Jan-18 04:45 255 -6.0
2020-Jan-18 04:35 322 -5.9
2020-Jan-18 04:25 056 1 gusting 2 -5.9
2020-Jan-18 04:20 056 0 gusting 1 -6.1
2020-Jan-18 04:15 021 0 gusting 1 -6.1
2020-Jan-18 04:10 091 0 gusting 1 -6.0
2020-Jan-18 04:05 285 0 gusting 1 -6.0
2020-Jan-18 03:55 124 2 gusting 2 -6.2
2020-Jan-18 03:50 088 0 gusting 2 -6.2
2020-Jan-18 03:45 112 0 gusting 0 -6.2
2020-Jan-18 03:40 220 0 gusting 1 -6.2
2020-Jan-18 03:35 233 -6.1
2020-Jan-18 03:25 279 0 gusting 1 -5.9
2020-Jan-18 03:15 038 0 gusting 1 -6.0
2020-Jan-18 03:10 116 -6.1
2020-Jan-18 03:05 228 -6.1
2020-Jan-18 02:55 243 0 gusting 1 -6.0
2020-Jan-18 02:50 209 0 gusting 2 -6.1
2020-Jan-18 02:45 088 0 gusting 0 -6.2
2020-Jan-18 02:40 134 0 gusting 1 -6.1
2020-Jan-18 02:35 187 -6.0
2020-Jan-18 02:25 246 -5.8
2020-Jan-18 02:20 223 -5.8
2020-Jan-18 02:15 231 -5.6
2020-Jan-18 02:10 069 0 gusting 0 -5.5
2020-Jan-18 02:05 035 0 gusting 1 -5.6
2020-Jan-18 01:55 057 0 gusting 0 -5.5
2020-Jan-18 01:45 119 0 gusting 1 -5.2
2020-Jan-18 01:35 158 -5.0
2020-Jan-18 01:25 066 0 gusting 1 -4.3
2020-Jan-18 01:20 260 0 gusting 1 -4.2
2020-Jan-18 01:15 150 0 gusting 1 -4.2
2020-Jan-18 01:10 124 0 gusting 1 -3.8
2020-Jan-18 01:05 260 1 gusting 2 -3.8
2020-Jan-18 00:55 267 0 gusting 1 -3.7
2020-Jan-18 00:50 188 0 gusting 1 -3.6
2020-Jan-18 00:45 073 0 gusting 1 -3.4
2020-Jan-18 00:40 202 0 gusting 1 -3.3
2020-Jan-18 00:35 161 0 gusting 1 -3.3
2020-Jan-18 00:25 258 0 gusting 1 -3.2
2020-Jan-18 00:20 195 0 gusting 1 -3.1
2020-Jan-18 00:15 287 0 gusting 0 -2.9
2020-Jan-18 00:10 111 0 gusting 1 -2.8
2020-Jan-18 00:05 178 0 gusting 2 -2.9
2020-Jan-17 23:55 099 0 gusting 2 -2.9
2020-Jan-17 23:50 078 1 gusting 3 -2.9
2020-Jan-17 23:45 046 0 gusting 2 -3.0
2020-Jan-17 23:40 109 0 gusting 1 -3.2
2020-Jan-17 23:35 071 0 gusting 0 -3.2
2020-Jan-17 23:25 302 0 gusting 1 -2.9
2020-Jan-17 23:20 233 0 gusting 1 -2.8
2020-Jan-17 23:10 239 0 gusting 2 -2.5
2020-Jan-17 22:55 173 0 gusting 2 -2.2
2020-Jan-17 22:50 128 0 gusting 2 -2.3
2020-Jan-17 22:45 233 0 gusting 2 -2.2
2020-Jan-17 22:40 230 1 gusting 2 -2.2
2020-Jan-17 22:35 124 0 gusting 1 -2.2
2020-Jan-17 22:25 281 0 gusting 2 -1.9
2020-Jan-17 22:20 209 0 gusting 2 -1.9
2020-Jan-17 22:10 192 0 gusting 3 -1.6
2020-Jan-17 22:05 230 1 gusting 4 -1.4
2020-Jan-17 21:55 140 0 gusting 1 -1.2
2020-Jan-17 21:50 100 1 gusting 5 -1.0
2020-Jan-17 21:45 193 0 gusting 7 -0.8
2020-Jan-17 21:40 218 1 gusting 2 -0.5
2020-Jan-17 21:25 214 0 gusting 3 0.1
2020-Jan-17 21:20 209 2 gusting 8 0.0
2020-Jan-17 21:15 218 1 gusting 6 0.2
2020-Jan-17 21:10 125 1 gusting 5 0.2
2020-Jan-17 21:05 200 1 gusting 3 0.3
2020-Jan-17 20:55 245 2 gusting 5 0.4
2020-Jan-17 20:50 237 2 gusting 6 0.4
2020-Jan-17 20:40 191 1 gusting 4 0.7
2020-Jan-17 20:25 229 2 gusting 8 0.7
2020-Jan-17 20:20 207 1 gusting 3 0.9
2020-Jan-17 20:15 173 1 gusting 6 0.8
2020-Jan-17 20:10 150 2 gusting 8 0.6
2020-Jan-17 20:05 227 3 gusting 8 0.6
2020-Jan-17 19:55 173 2 gusting 6 0.7
2020-Jan-17 19:45 249 2 gusting 6 1.0
2020-Jan-17 19:40 239 2 gusting 5 1.1
2020-Jan-17 19:35 144 2 gusting 7 0.8
2020-Jan-17 19:25 121 3 gusting 9 0.9
2020-Jan-17 19:20 115 2 gusting 5 1.1
2020-Jan-17 19:15 233 2 gusting 6 1.1
2020-Jan-17 19:05 114 2 gusting 5 1.3
2020-Jan-17 18:55 191 2 gusting 6 1.0
2020-Jan-17 18:50 250 2 gusting 8 0.9
2020-Jan-17 18:45 090 4 gusting 9 0.6
2020-Jan-17 18:40 054 4 gusting 11 0.8
2020-Jan-17 18:35 161 3 gusting 8 1.0
2020-Jan-17 18:25 201 2 gusting 5 0.9
2020-Jan-17 18:15 224 2 gusting 7 1.1
2020-Jan-17 18:05 107 3 gusting 6 0.7
2020-Jan-17 17:55 081 4 gusting 7 0.7
2020-Jan-17 17:50 110 2 gusting 6 1.1
2020-Jan-17 17:45 090 4 gusting 8 0.9
2020-Jan-17 17:40 185 2 gusting 8 0.7
2020-Jan-17 17:35 113 3 gusting 12 0.8
2020-Jan-17 17:25 126 3 gusting 8 0.8
2020-Jan-17 17:15 157 2 gusting 10 1.2
2020-Jan-17 17:10 126 2 gusting 6 1.0
2020-Jan-17 17:05 126 3 gusting 8 0.8
2020-Jan-17 16:55 171 1 gusting 7 1.1
2020-Jan-17 16:50 207 2 gusting 4 1.0
2020-Jan-17 16:45 148 2 gusting 7 0.7
2020-Jan-17 16:35 209 2 gusting 7 0.9
2020-Jan-17 16:25 180 2 gusting 8 0.7
2020-Jan-17 16:20 216 2 gusting 6 0.7
2020-Jan-17 16:15 175 3 gusting 8 0.6
2020-Jan-17 16:10 090 3 gusting 13 1.0
2020-Jan-17 16:05 132 2 gusting 5 1.2
2020-Jan-17 15:55 134 3 gusting 10 0.9
2020-Jan-17 15:45 174 2 gusting 7 0.4
2020-Jan-17 15:35 161 3 gusting 9 0.3
2020-Jan-17 15:25 097 3 gusting 10 0.2
2020-Jan-17 15:20 126 3 gusting 7 0.4
2020-Jan-17 15:15 133 3 gusting 10 0.5
2020-Jan-17 15:10 189 2 gusting 5 0.6
2020-Jan-17 15:05 147 1 gusting 6 0.5
2020-Jan-17 14:55 126 3 gusting 10 0.0
2020-Jan-17 14:50 175 2 gusting 9 -0.0
2020-Jan-17 14:45 152 1 gusting 8 -0.0
2020-Jan-17 14:40 147 3 gusting 12 0.1
2020-Jan-17 14:35 204 1 gusting 4 -0.0
2020-Jan-17 14:25 144 2 gusting 8 -0.5
2020-Jan-17 14:20 156 3 gusting 13 -0.5
2020-Jan-17 14:10 145 2 gusting 9 -1.0
2020-Jan-17 13:55 170 2 gusting 7 -1.2
2020-Jan-17 13:50 179 3 gusting 16 -1.3
2020-Jan-17 13:45 159 1 gusting 5 -1.4
2020-Jan-17 13:40 195 2 gusting 6 -1.4
2020-Jan-17 13:35 140 2 gusting 5 -1.5
2020-Jan-17 13:25 145 2 gusting 9 -1.6
2020-Jan-17 13:20 181 2 gusting 9 -1.7
2020-Jan-17 13:10 172 2 gusting 7 -1.8
2020-Jan-17 13:05 178 1 gusting 5 -1.9
2020-Jan-17 12:55 153 2 gusting 7 -1.9
2020-Jan-17 12:50 172 2 gusting 8 -1.9
2020-Jan-17 12:45 163 1 gusting 3 -1.9
2020-Jan-17 12:40 192 2 gusting 6 -1.9
2020-Jan-17 12:25 178 2 gusting 15 -1.8
2020-Jan-17 12:20 190 2 gusting 15 -1.8
2020-Jan-17 12:15 208 3 gusting 9 -1.8
2020-Jan-17 12:10 185 1 gusting 5 -1.8
2020-Jan-17 12:05 143 2 gusting 6 -1.8
2020-Jan-17 11:55 152 1 gusting 4 -1.6
2020-Jan-17 11:50 136 1 gusting 4 -1.6
2020-Jan-17 11:40 178 1 gusting 4 -1.5
2020-Jan-17 11:25 151 1 gusting 4 -1.3
2020-Jan-17 11:20 181 1 gusting 7 -1.2
2020-Jan-17 11:15 160 1 gusting 5 -1.1
2020-Jan-17 11:10 127 2 gusting 6 -1.0
2020-Jan-17 11:05 193 1 gusting 4 -0.9
2020-Jan-17 10:55 201 2 gusting 16 -0.8
2020-Jan-17 10:50 156 1 gusting 8 -0.7
2020-Jan-17 10:40 204 1 gusting 5 -0.4
2020-Jan-17 10:35 195 1 gusting 4 -0.3
2020-Jan-17 10:25 174 1 gusting 3 -0.2
2020-Jan-17 10:20 142 0 gusting 2 -0.1
2020-Jan-17 10:15 171 0 gusting 2 -0.0
2020-Jan-17 10:10 182 0 gusting 2 -0.0
2020-Jan-17 10:05 183 1 gusting 3 -0.0
2020-Jan-17 09:55 167 1 gusting 5 -0.0
2020-Jan-17 09:50 221 1 gusting 5 -0.1
2020-Jan-17 09:45 206 1 gusting 6 -0.1
2020-Jan-17 09:40 203 2 gusting 5 -0.1
2020-Jan-17 09:35 206 2 gusting 8 -0.2
2020-Jan-17 09:25 218 1 gusting 10 -0.1
2020-Jan-17 09:20 225 1 gusting 8 -0.1
2020-Jan-17 09:15 220 1 gusting 5 0.1
2020-Jan-17 09:05 209 2 gusting 9 0.4
2020-Jan-17 08:55 251 2 gusting 8 0.4
2020-Jan-17 08:50 230 1 gusting 5 0.3
2020-Jan-17 08:45 217 1 gusting 11 0.3
2020-Jan-17 08:40 214 2 gusting 8 0.3
2020-Jan-17 08:35 218 1 gusting 3 0.3
2020-Jan-17 08:25 158 1 gusting 3 0.4
2020-Jan-17 08:15 187 1 gusting 4 0.4
2020-Jan-17 08:10 229 3 gusting 13 0.4
2020-Jan-17 08:05 252 1 gusting 5 0.3
2020-Jan-17 07:55 198 1 gusting 5 0.4
2020-Jan-17 07:50 213 2 gusting 8 0.5
2020-Jan-17 07:45 189 1 gusting 6 0.5
2020-Jan-17 07:40 227 2 gusting 7 0.6
2020-Jan-17 07:35 228 1 gusting 6 0.6
2020-Jan-17 07:25 231 2 gusting 6 1.0
2020-Jan-17 07:20 196 2 gusting 9 1.0
2020-Jan-17 07:15 235 2 gusting 6 1.0
2020-Jan-17 07:10 219 1 gusting 5 1.0
2020-Jan-17 07:05 238 2 gusting 7 1.0
2020-Jan-17 06:55 244 2 gusting 11 1.0
2020-Jan-17 06:45 212 1 gusting 5 1.0
2020-Jan-17 06:35 235 1 gusting 5 1.1
2020-Jan-17 06:25 211 1 gusting 3 1.3
2020-Jan-17 06:20 222 1 gusting 4 1.4
2020-Jan-17 06:15 223 1 gusting 4 1.4
2020-Jan-17 06:10 226 1 gusting 4 1.5
2020-Jan-17 06:05 276 1 gusting 5 1.5
2020-Jan-17 05:55 170 1 gusting 2 1.8
2020-Jan-17 05:50 225 1 gusting 3 1.8
2020-Jan-17 05:40 235 1 gusting 5 1.7
2020-Jan-17 05:35 166 1 gusting 8 1.8
2020-Jan-17 05:25 235 2 gusting 10 1.9
2020-Jan-17 05:20 240 2 gusting 11 1.8
2020-Jan-17 05:15 219 1 gusting 6 1.9
2020-Jan-17 05:05 207 2 gusting 6 2.0
2020-Jan-17 04:55 212 2 gusting 8 2.1
2020-Jan-17 04:50 221 2 gusting 7 2.2
2020-Jan-17 04:45 231 2 gusting 8 2.2
2020-Jan-17 04:40 250 2 gusting 8 2.4
2020-Jan-17 04:35 262 4 gusting 12 2.4
2020-Jan-17 04:25 258 2 gusting 9 2.3
2020-Jan-17 04:15 244 2 gusting 7 2.5
2020-Jan-17 04:05 250 4 gusting 12 2.5
2020-Jan-17 03:55 232 2 gusting 9 2.4
2020-Jan-17 03:50 257 2 gusting 12 2.5
2020-Jan-17 03:45 267 2 gusting 6 2.5
2020-Jan-17 03:40 261 2 gusting 6 2.6
2020-Jan-17 03:35 216 3 gusting 10 2.7
2020-Jan-17 03:25 222 3 gusting 9 2.6
2020-Jan-17 03:15 239 2 gusting 7 2.7
2020-Jan-17 03:10 250 3 gusting 15 2.7
2020-Jan-17 03:05 265 3 gusting 13 2.7
2020-Jan-17 02:55 257 2 gusting 8 2.9
2020-Jan-17 02:50 273 3 gusting 8 3.0
2020-Jan-17 02:45 259 3 gusting 12 3.0
2020-Jan-17 02:35 271 3 gusting 11 3.1
2020-Jan-17 02:25 244 3 gusting 9 3.3
2020-Jan-17 02:20 246 5 gusting 10 3.3
2020-Jan-17 02:15 251 3 gusting 17 3.3
2020-Jan-17 02:10 262 3 gusting 10 3.4
2020-Jan-17 02:05 236 4 gusting 12 3.4
2020-Jan-17 01:55 238 2 gusting 11 3.3
2020-Jan-17 01:50 211 2 gusting 8 3.4
2020-Jan-17 01:40 277 4 gusting 14 3.5
2020-Jan-17 01:35 230 2 gusting 6 3.6
2020-Jan-17 01:25 269 3 gusting 10 3.6
2020-Jan-17 01:20 213 2 gusting 8 3.6
2020-Jan-17 01:15 241 2 gusting 8 3.8
2020-Jan-17 01:10 266 3 gusting 9 3.8
2020-Jan-17 01:05 249 3 gusting 12 3.9
2020-Jan-17 00:55 264 3 gusting 8 4.0
2020-Jan-17 00:50 236 4 gusting 9 4.1
2020-Jan-17 00:40 225 3 gusting 10 4.2
2020-Jan-17 00:25 227 4 gusting 16 4.6
2020-Jan-17 00:20 283 4 gusting 13 4.7
2020-Jan-17 00:15 242 4 gusting 18 4.8
2020-Jan-17 00:10 257 4 gusting 11 4.9
2020-Jan-17 00:05 255 4 gusting 13 5.1
2020-Jan-16 23:55 254 7 gusting 18 5.5
2020-Jan-16 23:50 261 7 gusting 24 5.7
2020-Jan-16 23:40 278 6 gusting 19 6.1
2020-Jan-16 23:35 276 7 gusting 25 6.2
2020-Jan-16 23:25 262 4 gusting 19 6.3
2020-Jan-16 23:20 278 4 gusting 13 6.5
2020-Jan-16 23:15 235 4 gusting 13 6.5
2020-Jan-16 23:10 263 4 gusting 10 6.6
2020-Jan-16 22:55 196 3 gusting 10 6.9
2020-Jan-16 22:50 215 1 gusting 4 7.0
2020-Jan-16 22:45 180 1 gusting 5 7.0
2020-Jan-16 22:40 221 1 gusting 8 7.1
2020-Jan-16 22:35 214 0 gusting 3 7.2
2020-Jan-16 22:25 271 3 gusting 7 7.4
2020-Jan-16 22:20 262 2 gusting 12 7.5
2020-Jan-16 22:10 261 2 gusting 5 7.5
2020-Jan-16 21:55 237 2 gusting 6 7.7
2020-Jan-16 21:50 244 2 gusting 6 7.7
2020-Jan-16 21:45 241 3 gusting 9 7.9
2020-Jan-16 21:40 253 2 gusting 12 8.0
2020-Jan-16 21:35 261 4 gusting 17 8.2
2020-Jan-16 21:25 223 3 gusting 6 8.5
2020-Jan-16 21:20 219 3 gusting 14 8.7
2020-Jan-16 21:10 274 4 gusting 9 8.9
2020-Jan-16 21:05 289 5 gusting 11 8.9
2020-Jan-16 20:55 266 6 gusting 17 9.0
2020-Jan-16 20:50 248 5 gusting 12 9.2
2020-Jan-16 20:45 276 7 gusting 17 9.3
2020-Jan-16 20:40 289 5 gusting 12 9.3
2020-Jan-16 20:25 282 5 gusting 16 9.7
2020-Jan-16 20:20 269 5 gusting 12 9.6
2020-Jan-16 20:15 269 5 gusting 21 9.7
2020-Jan-16 20:10 277 6 gusting 16 9.7
2020-Jan-16 20:05 289 6 gusting 14 9.6
2020-Jan-16 19:55 281 6 gusting 14 10.0
2020-Jan-16 19:50 288 5 gusting 14 10.4
2020-Jan-16 19:40 282 6 gusting 13 10.3
2020-Jan-16 19:25 282 6 gusting 13 10.6
2020-Jan-16 19:20 267 6 gusting 14 10.8
2020-Jan-16 19:15 254 4 gusting 12 10.9
2020-Jan-16 19:10 263 5 gusting 14 11.0
2020-Jan-16 19:05 271 5 gusting 14 11.0